sat.trackr.live / text

‹ back to catalog

STARLINK-36035

NORAD 67082 · 2025-298H

PAYLOAD ACTIVE UNKNOWN

§ Identity

Operator
Country
US
Launch date
2025-12-14
Launch site
AFWTR
Launch vehicle
Mass (kg)
RCS (m²)

Purposes: comms

External: N2YO · Heavens-Above · Gunter

§ Orbital elements

Epoch: 2026-05-25T03:49:16.314240Z

Period
96.11 min
Inclination
70.0016°
Eccentricity
0.0004002
Mean motion
14.98338953 rev/d
Perigee alt
569.2 km
Apogee alt
574.8 km
Semi-major
6,950.2 km
B*
2.6880e-4
RAAN
181.5769°
Arg perigee
265.7290°
Mean anomaly
94.3411°
Rev number
2,467

§ Raw data

STARLINK-360351 67082U 25298H   26145.15921660  .00003117  00000+0  26880-3 0  99952 67082  70.0016 181.5769 0004002 265.7290  94.3411 14.98338953 24677

JSON: /api/v1/satellites/67082 · /tle

For live sub-satellite position, see the globe view (requires WebGL).

§ Visibility from observer

Set your observer location to see the next 7 days of passes ≥ 10°. The values pass through the URL so the page stays shareable.

No JS? Fill the form by hand. The geolocation button needs JavaScript.